This is the latest recevied weather packets stored in our database for station/object DG8SF-13. If no packets are shown the sender has not sent any weather packets the latest 10 day(s).
| Time | Temp. | Humidity | Pressure | Rain* | Wind** | Luminosity | Snow |
|---|---|---|---|---|---|---|---|
| 1787400893 | 20° C | 56% | 1018.6 hPa | 0 mm | - | - | - |
| 1787400582 | 20° C | 55% | 1018.5 hPa | 0 mm | - | - | - |
| 1787400260 | 20.56° C | 53% | 1018.6 hPa | 0 mm | - | - | - |
| 1787399945 | 21.11° C | 52% | 1018.4 hPa | 0 mm | - | - | - |
| 1787399633 | 21.67° C | 49% | 1018.5 hPa | 0 mm | - | - | - |
| 1787399324 | 21.11° C | 53% | 1018.4 hPa | 0 mm | - | - | - |
| 1787399009 | 20° C | 55% | 1018.4 hPa | 0 mm | - | - | - |
| 1787398700 | 18.89° C | 57% | 1018.5 hPa | 0 mm | - | - | - |
| 1787398386 | 18.89° C | 57% | 1018.6 hPa | 0 mm | - | - | - |
| 1787398076 | 19.44° C | 56% | 1018.5 hPa | 0 mm | - | - | - |
| 1787397762 | 20.56° C | 58% | 1018.4 hPa | 0 mm | - | - | - |
| 1787397439 | 19.44° C | 58% | 1018.2 hPa | 0 mm | - | - | - |
| 1787397127 | 19.44° C | 58% | 1018.3 hPa | 0 mm | - | - | - |
| 1787396815 | 19.44° C | 55% | 1018.2 hPa | 0 mm | - | - | - |
| 1787396502 | 20.56° C | 52% | 1018 hPa | 0 mm | - | - | - |
| 1787396177 | 20.56° C | 53% | 1017.8 hPa | 0 mm | - | - | - |
| 1787395867 | 19.44° C | 53% | 1018 hPa | 0 mm | - | - | - |
| 1787395557 | 20° C | 53% | 1017.9 hPa | 0 mm | - | - | - |
| 1787395241 | 20.56° C | 50% | 1017.8 hPa | 0 mm | - | - | - |
| 1787394932 | 20.56° C | 53% | 1017.7 hPa | 0 mm | - | - | - |
| 1787394620 | 20.56° C | 52% | 1017.8 hPa | 0 mm | - | - | - |
| 1787394309 | 20° C | 55% | 1017.8 hPa | 0 mm | - | - | - |
| 1787393981 | 18.89° C | 55% | 1017.8 hPa | 0 mm | - | - | - |
| 1787393670 | 20° C | 54% | 1017.7 hPa | 0 mm | - | - | - |
| 1787393357 | 20.56° C | 55% | 1017.6 hPa | 0 mm | - | - | - |
* Rain latest hour (hover to see other rain measurements)
** Current wind speed in m/s (hover to see current wind gust speed)